User: anonymous   Login
Location: Béaulencourt
(50.0796°N, 2.8795°E)
Time: 03:25:21
(UTC+00:00)
Language:

Meteor 2-5 Rocket - Orbit

View from above orbital plane
View from above orbital plane
View from above satellite
View from above satellite

Ground track
Ground track

The orbit is defined by the following mean orbital elements,

1 11608U          26069.86693359 +.00000000 +00000-0 +37502-4 0 00002
2 11608  81.2173 355.9307 0053235 201.9164 157.9728 14.06552262    05
Epoch (UTC): 10 March 2026 20:48:23
Eccentricity: 0.0053235
inclination: 81.2173°
perigee height: 833 km
apogee height: 910 km
right ascension of ascending node: 355.9307°
argument of perigee: 201.9164°
revolutions per day: 14.06552262
mean anomaly at epoch: 157.9728°

The dashed part of the orbit path shows where the satellite is in the earth's shadow,  

DLR